Torna al catalogo

ONEWEB-0346

AttivoComunicazioniPO
NORAD 49212·PAYLOAD·🇬🇧 United Kingdom

Lanciato Sep 14, 2021 da Baikonur Cosmodrome

Loading…

Prossimi Passaggi (prossime 24 ore)

TLE

AggiornatoSource: CelesTrak SupGP

Epoca: Sep 14, 2026, 23:59 UTC

1 49212C 21083AC  26257.99946019  .00001924  00000+0  48860-2 0  2571
2 49212  87.9171 317.6118 0002342 112.6186 325.1638 13.18686858    19

Traccia ONEWEB-0346 in tempo reale con AllMySat

Download on the App Store